Miscellaneous Local Product
Issued by NWS Hastings, NE

Home | Current Version | Previous Version | Text Only | Print | Product List | Glossary Off
Versions: 1 2 3 4 5 6 7 8 9 10 11 12 13 14 15 16 17 18 19 20 21 22 23 24 25 26 27 28 29 30 31 32 33 34 35 36 37 38 39 40 41 42 43 44 45 46 47 48 49 50

320
AXUS43 KGID 210202
MISGRI

GID CWA HOURLY WEATHER ROUNDUP
NATIONAL WEATHER SERVICE HASTINGS NE
900 PM CDT SUN AUG 20 2017

NOTE: "FAIR" INDICATES FEW OR NO CLOUDS BELOW 12,000 FEET WITH NO
SIGNIFICANT WEATHER AND/OR OBSTRUCTIONS TO VISIBILITY.

...SOUTH CENTRAL NEBRASKA...

CITY           SKY/WX    TMP DP  RH WIND       PRES   REMARKS
GRAND ISLAND   PTCLDY    78  76  93 NE8       29.92S
HASTINGS       PTCLDY    83  72  69 SE10      29.92R
KEARNEY        CLEAR     79  76  90 E9        29.92R
ORD            PTCLDY    75  69  81 E7        29.94S
YORK           PTCLDY    79  73  83 SE9       29.92R
AURORA         CLOUDY    78  77  96 NE6       29.91S
LEXINGTON      CLEAR     79  74  86 NE7       29.93R
HOLDREGE       CLEAR     79  75  88 E8        29.91R
HEBRON         CLEAR     85  73  67 SE9       29.90R HX  91

...NEBRASKA PANHANDLE...

CITY           SKY/WX    TMP DP  RH WIND       PRES   REMARKS
CHADRON        CLEAR     76  55  48 E8        29.97R
ALLIANCE       CLOUDY    71  58  63 E8        30.01R
SCOTTSBLUFF    CLOUDY    79  60  52 SE10      30.00R
SIDNEY         CLEAR     75  63  66 SE9       30.05R

...WESTERN AND NORTH CENTRAL NEBRASKA...

CITY           SKY/WX    TMP DP  RH WIND       PRES   REMARKS
VALENTINE      PTCLDY    74  57  55 NE9       29.99R
AINSWORTH      PTCLDY    72  70  93 E6        29.99S
ONEILL         CLEAR     73  69  89 E3        29.98R
BROKEN BOW     CLOUDY    78  72  81 NE9       29.96R
IMPERIAL       CLOUDY    75  65  70 NE6       29.96R
NORTH PLATTE   CLEAR     77  69  76 NE9       29.96R
MCCOOK         CLEAR     78  70  76 N8        29.91R

...EASTERN NEBRASKA...

CITY           SKY/WX    TMP DP  RH WIND       PRES   REMARKS
NORFOLK        CLOUDY    77  71  82 E5        29.95S
SO SIOUX CITY  MOCLDY    76  69  79 SE7       29.95S
TEKAMAH        PTCLDY    74  69  85 E5        29.95R
COLUMBUS       CLEAR     74  71  91 E7        29.94R
ALBION         CLOUDY    77  72  85 NE6       29.96S
OMAHA EPPLEY   PTCLDY    77  69  76 E7        29.94S
OFFUTT AFB     CLEAR     74  68  81 NE7       29.94R
MILLARD        CLEAR     80  68  67 SE6       29.94R
LINCOLN        PTCLDY    81  71  71 SE9       29.92S
NEBRASKA CITY  PTCLDY    74  73  96 E5        29.95R
BEATRICE       CLEAR     82  73  74 SE13      29.92R
FALLS CITY     CLOUDY    77  72  84 SE7       29.94R

...NORTHERN KANSAS...

CITY           SKY/WX    TMP DP  RH WIND       PRES   REMARKS
GOODLAND       MOCLDY    77  62  59 S8        29.98R
HILL CITY      CLEAR     84  64  50 SW5       29.91R
NORTON         CLEAR     86  57  37 S8        29.90R
PHILLIPSBURG   CLEAR     84  63  48 SE6       29.89R
SMITH CENTER   CLOUDY    82  66  57 SE9       29.90R
HAYS           CLOUDY    86  67  52 S12       29.92R
RUSSELL        CLOUDY    87  67  51 S14       29.90R HX  90
CONCORDIA      MOCLDY    85  69  58 S10       29.90R
SALINA         PTCLDY    89  70  53 S13       29.91R HX  94
TOPEKA         PTCLDY    83  77  82 E10       29.95R HX  92



USA.gov is the U.S. government's official web portal to all federal, state and local government web resources and services.